Location: Obersdorf
(47.4079°N, 10.2781°E)
Time: 11:47:34
(UTC+01:00)

XW-2C - Pass Details

Date: 03 December 2021
Orbit: 503 x 523 km, 97.5° (Epoch: 15 January)

Event Time Altitude Azimuth Distance (km) Brightness Sun altitude
Rises 06:34:15 0° 11° (N) 2,668 ? -12.0°
Reaches altitude 10° 06:36:21 10° 9° (N) 1,776 ? -11.6°
Maximum altitude 06:40:11 74° 286° (WNW) 551 ? -11.0°
Drops below altitude 10° 06:43:58 10° 200° (SSW) 1,761 ? -10.4°
Sets 06:46:04 0° 199° (SSW) 2,643 ? -10.1°
